Ana Sayfa
METAR-TAF:

METAR-TAF

Havaalanları :

Starkville, Mississipi, Amerika Birleşik Devletleri

Enlem: 33-25-59N, Boylam: 088-50-55W, yükseklik: 101 m

Güncel hava durumu gözlemi

Rapor saat 06:35 UTC de 33 dakika önce yapıldı.
Sakin rüzgar
Sıcaklık 21°C
Nem 106%
Basınç 1016 hPa
Görüş mesafesi: 16.1 km
5000 ft yükseklikte parçalı çok bulutlu
5500 ft yükseklikte çok bulutlu

METAR: KSTF 160635Z AUTO 00000KT 10SM BKN050 OVC055 21/22 A3000 RMK AO2

Saat: 02:08 (07:08 UTC)


TAF: eksik

4.000'den fazla havaalanı için hava durumu gözlemleri ve tahminleri (METAR ve TAF raporları).

Kullanılabilir istasyonlar harita üzerinde sarı ve kırmızı noktalarla gösterilir.

İstasyonun adını görmek için fareyi noktanın üzerinde gezdirin.

Sonrasında hava gözlem ve tahminlerini görmek için tıklayın.

Haritayı değiştirmek için: yaklaştırmak için siyah artı işaretli yeşil düğmeye ve uzaklaştırmak için de eksi işaretli düğmeye hızla tıklayın; bitişik haritalar için yeşil okları kullanın.


METAR-TAF: